Theta_e
348 349 347 348 350 351 352 351 355 356 356 354 353 356 354 352 355 358 356 356 356 351 350 351 348 346 349 352 352 349 348 351 351 350 349 348 349 349 348 343 342 344 344 344 344 345 345 345 346 346 345 344 344 346 346 346 345 345 346 345 344 344 344 344 344 344 343 342 342 342 342 342 343 344 343 343 342 340 339 337 336 335 334 332 331 330 329 329 329 329 329 329 329 328 329 329 330
348 349 350 351 351 352 353 352 358 360 356 354 353 356 353 353 357 358 356 355 354 351 352 349 346 346 346 346 345 344 347 349 348 350 350 349 350 350 346 341 341 342 343 343 343 344 344 345 346 347 347 346 346 347 347 347 346 346 346 346 345 344 344 345 345 344 344 343 342 341 342 343 343 343 344 344 344 343 341 340 339 337 336 334 333 333 333 332 332 332 331 330 329 328 329 328 328
348 350 351 352 352 352 352 353 359 358 354 353 353 354 354 357 356 354 351 350 351 351 352 349 348 348 345 344 345 346 348 349 347 348 350 350 350 350 347 342 341 341 342 343 343 343 343 345 347 347 347 347 347 347 346 347 346 347 347 345 345 345 345 345 344 344 344 343 342 341 342 342 342 343 344 344 343 342 341 340 340 340 340 341 340 338 334 331 330 328 327 326 324 324 324 324 324
348 350 352 352 352 353 356 359 361 358 353 352 353 352 354 358 355 350 348 347 350 351 352 350 352 351 347 347 346 345 348 349 345 345 350 349 347 350 349 343 340 341 341 343 343 343 343 345 347 347 348 347 347 347 347 346 346 346 347 345 345 346 345 345 344 344 343 342 342 341 342 343 342 343 343 342 341 340 340 341 342 340 339 337 334 330 326 325 324 324 324 325 325 325 325 325 325
351 352 352 352 353 356 359 361 361 358 354 353 353 352 355 358 356 352 349 349 351 351 351 351 353 352 350 350 347 346 346 348 345 342 347 347 345 348 349 343 341 340 339 342 343 342 343 345 346 346 347 347 347 347 346 346 347 346 346 345 345 345 345 344 343 343 343 342 342 343 343 343 343 343 343 340 339 338 337 337 336 332 329 327 325 324 323 324 324 325 326 328 329 329 329 329 329
353 353 353 353 354 355 359 358 356 357 356 356 354 353 355 355 354 352 351 351 351 350 350 350 352 351 352 349 346 346 346 347 346 344 345 346 346 345 345 342 340 338 336 339 342 342 344 344 344 345 345 345 345 344 344 344 345 345 345 345 345 345 345 344 343 343 342 342 342 343 343 343 343 341 339 336 333 332 329 327 326 324 324 323 324 324 324 324 324 326 329 331 333 334 334 334 334
355 355 354 355 355 355 361 356 355 358 357 355 354 355 355 351 350 352 353 352 351 349 350 351 351 353 356 351 348 347 347 346 345 345 345 346 348 346 343 340 340 339 334 335 340 342 344 345 345 345 345 345 345 344 344 344 344 344 344 344 345 345 345 345 344 343 343 344 343 342 340 338 337 334 331 328 326 325 324 324 324 324 324 324 324 324 325 325 326 328 332 334 335 335 336 336 336
355 356 354 358 361 360 362 357 357 361 357 354 353 353 351 348 348 352 354 354 352 351 352 352 349 353 355 348 347 346 344 344 344 344 344 348 349 347 345 343 344 344 338 332 336 342 343 344 345 346 346 346 346 345 346 346 346 346 345 346 346 345 345 344 344 343 341 340 337 333 331 328 327 326 324 324 324 324 324 324 324 324 325 325 327 329 332 332 329 331 333 336 336 336 336 336 338
354 356 355 360 365 360 360 358 359 360 357 355 353 351 348 347 348 352 355 354 352 352 352 351 347 351 350 347 346 342 342 342 342 344 345 348 349 348 347 346 347 346 344 336 333 339 344 345 345 345 345 346 346 346 347 347 347 347 346 345 344 343 342 340 338 335 332 330 328 325 324 324 324 323 324 324 325 325 324 325 328 331 333 334 336 337 339 337 333 334 336 337 337 336 338 338 339
355 356 357 363 364 357 355 358 359 357 355 354 353 351 347 348 351 352 356 355 352 353 353 349 347 350 350 350 348 341 341 341 342 346 347 347 348 347 347 348 348 343 340 337 332 335 342 345 346 345 345 345 346 346 347 347 346 345 344 342 341 339 336 332 329 328 325 324 324 324 324 324 324 324 325 325 325 326 327 331 336 339 339 340 340 340 339 337 335 336 337 337 338 339 340 340 339
357 355 356 363 361 355 354 356 358 357 356 353 352 348 347 350 352 354 354 355 353 353 352 347 349 350 350 351 349 344 341 339 342 346 347 347 347 347 347 348 347 341 332 329 329 330 338 343 345 346 345 345 345 344 344 343 342 342 340 338 335 332 329 326 326 325 324 324 324 324 325 325 325 325 326 328 331 334 336 338 340 341 341 340 340 340 338 337 338 338 339 339 339 339 336 336 335
361 358 360 365 360 358 356 356 358 358 356 355 354 350 350 351 354 357 354 354 354 352 351 348 349 349 351 351 348 346 342 339 340 344 346 347 347 346 346 345 346 343 331 325 326 328 333 339 341 342 342 342 342 341 340 340 339 337 335 332 331 328 326 324 324 324 324 324 325 325 325 325 327 328 332 337 340 342 342 341 340 340 341 341 340 340 339 340 340 340 339 338 335 331 328 327 326
360 359 368 367 359 363 359 355 358 358 356 355 354 351 351 351 353 356 352 353 353 355 354 349 347 347 351 351 348 347 345 342 342 344 345 345 346 345 345 345 345 337 327 325 325 327 331 335 337 337 337 335 337 338 337 336 334 332 330 328 326 324 324 324 326 326 325 326 327 327 328 329 332 335 339 342 343 343 342 340 340 341 341 341 341 340 340 338 337 335 332 329 327 324 323 324 326
359 356 366 365 358 365 362 356 358 356 357 357 353 351 352 352 353 353 352 355 355 354 354 348 346 348 352 352 349 348 347 346 345 345 346 346 345 345 345 346 345 331 323 326 325 327 331 333 334 332 331 330 331 333 332 329 327 327 326 325 325 326 327 329 330 328 327 328 329 332 334 337 340 342 343 343 343 343 341 340 340 340 340 339 338 336 334 333 331 330 329 327 326 328 331 335 338
358 353 364 367 361 363 361 356 357 355 358 358 354 351 353 352 354 353 352 357 357 352 350 350 349 348 351 352 351 348 347 347 346 346 346 347 346 346 347 346 345 332 325 325 325 327 328 329 330 328 327 327 327 326 326 324 324 324 324 325 327 330 332 330 328 328 330 331 334 336 339 342 343 344 344 343 343 341 340 339 339 337 336 334 333 332 332 334 334 334 333 333 333 336 339 341 343
357 356 364 365 357 357 358 358 358 357 359 356 352 351 353 353 354 354 352 355 354 350 351 354 352 349 347 348 348 347 348 347 346 347 345 347 346 347 347 345 344 339 335 330 325 325 325 325 326 326 326 326 326 326 328 331 330 329 330 330 331 332 332 332 332 333 336 338 339 341 343 344 344 344 343 343 341 340 339 338 338 338 337 336 335 335 335 336 338 339 337 338 339 339 340 340 341
357 359 364 360 354 353 357 360 358 360 362 355 350 351 353 354 353 354 354 353 351 350 352 354 353 351 346 343 346 347 349 348 348 347 346 347 347 347 347 346 344 343 343 339 330 326 328 328 327 328 330 331 335 336 338 341 340 340 340 339 339 339 339 340 340 341 342 343 343 343 344 344 343 343 343 342 341 340 340 340 341 342 341 338 337 337 338 338 339 341 339 338 339 338 338 338 339
357 360 364 360 355 352 354 358 355 357 360 354 351 352 354 355 355 354 354 353 348 350 353 352 354 352 344 341 345 347 347 348 348 348 347 348 347 347 347 347 345 342 345 346 340 336 338 338 336 336 338 339 341 342 342 343 343 343 342 343 343 342 342 342 343 343 343 343 343 343 343 343 342 342 342 342 341 341 341 341 343 344 343 339 337 336 337 337 339 340 339 338 338 337 337 335 335
356 356 360 359 354 351 351 354 351 355 357 353 351 352 353 354 354 353 355 354 351 354 355 354 355 349 344 344 345 347 347 347 348 348 347 347 348 347 347 348 345 343 345 346 341 342 345 344 343 342 343 343 342 343 343 343 342 341 342 342 342 341 342 342 343 343 343 343 343 343 342 341 342 342 342 342 342 342 341 342 343 345 343 340 336 335 335 334 336 339 338 338 338 337 334 332 334
354 352 355 354 350 350 351 351 351 353 354 352 351 352 353 353 353 353 353 353 354 358 357 355 354 349 348 348 344 346 348 348 347 347 346 345 346 346 346 345 343 342 343 342 339 341 344 344 344 343 344 344 343 343 342 342 342 342 342 341 342 342 343 344 344 344 343 343 343 343 342 341 342 342 342 342 341 341 341 342 343 343 341 338 336 336 336 334 334 337 338 338 339 338 333 331 335
353 350 349 348 348 350 351 351 351 352 352 352 352 352 352 351 353 351 351 354 357 357 355 353 353 352 352 347 343 346 348 347 346 346 345 344 344 345 343 340 341 342 343 343 341 340 340 342 344 342 343 344 344 344 342 342 343 343 341 341 343 344 344 344 343 343 342 342 342 343 343 342 342 341 340 339 339 340 341 342 343 341 338 335 335 336 337 335 335 337 337 337 338 335 331 332 335
348 346 344 345 346 348 351 350 351 352 352 352 352 351 350 350 351 349 350 356 357 356 353 351 352 351 349 343 344 347 347 346 345 345 345 344 344 344 343 341 344 345 344 344 343 341 340 343 344 341 342 346 345 344 343 343 344 344 343 343 344 344 344 343 343 342 341 341 341 342 342 342 343 342 341 340 340 340 341 343 342 338 336 334 335 335 336 337 335 335 336 334 330 325 327 333 335
344 342 340 342 345 345 349 349 350 352 351 351 351 350 349 349 350 349 351 353 352 353 352 350 350 346 343 342 344 347 347 346 346 346 345 345 346 345 343 343 346 346 343 344 344 343 343 344 344 343 345 347 347 345 344 345 345 345 345 344 344 343 343 342 341 341 341 342 342 341 342 343 343 343 343 343 342 340 340 341 338 335 334 334 335 333 335 337 333 331 332 328 320 317 323 330 332
344 342 340 342 344 343 345 346 347 347 348 348 349 348 349 349 349 350 350 350 349 352 351 350 349 345 342 343 343 345 347 347 346 345 344 345 346 345 343 343 345 346 344 345 346 344 345 346 345 345 347 348 347 346 346 346 345 344 344 344 344 344 343 342 341 341 340 340 340 339 341 343 343 343 342 342 343 341 339 336 332 331 331 332 332 328 327 330 328 325 324 319 315 318 324 330 332
346 344 342 343 343 343 344 344 344 345 346 344 346 347 347 349 349 349 350 349 349 352 351 350 350 347 344 344 345 346 348 347 344 343 345 344 345 344 344 344 345 345 345 346 345 345 346 347 346 345 347 347 347 347 346 346 345 344 344 345 345 345 344 342 341 340 338 337 337 337 339 341 341 340 339 338 338 336 332 326 324 325 327 329 327 321 318 320 321 320 317 315 319 327 331 334 336
346 344 342 341 342 343 342 343 343 344 344 344 348 349 347 348 349 352 352 350 350 352 352 351 350 347 345 345 346 348 348 346 343 344 345 343 344 345 344 344 345 345 346 345 345 346 347 348 346 345 346 346 347 347 347 346 344 343 344 345 346 345 343 342 343 342 338 336 335 333 333 334 335 332 329 327 325 324 320 319 321 322 324 326 323 317 317 319 319 317 315 316 325 333 335 336 337
345 344 342 342 342 343 342 341 343 344 344 344 351 353 348 347 353 356 355 352 352 353 354 352 350 347 347 348 347 347 345 343 343 345 345 344 344 345 345 345 345 345 346 346 346 347 348 348 347 346 346 346 347 347 347 345 343 343 345 345 345 343 343 344 344 342 338 333 330 330 329 327 326 323 322 320 321 322 322 322 324 325 325 324 323 319 319 319 319 318 315 319 330 335 335 336 336
343 344 344 345 343 342 343 344 343 345 346 342 350 356 349 347 351 356 356 354 354 353 354 352 350 348 348 348 348 347 344 343 344 345 344 343 344 345 345 346 345 345 346 346 346 347 348 349 347 347 347 347 347 346 346 344 343 344 345 344 344 343 344 344 343 340 335 330 329 329 326 323 322 321 321 321 323 326 328 328 327 329 327 322 323 322 319 318 317 316 314 322 332 334 335 336 336
344 344 348 354 351 346 344 346 345 345 348 343 346 351 350 355 353 353 356 354 354 354 354 353 350 349 350 350 348 347 346 343 344 345 343 342 344 345 346 346 346 346 347 347 347 347 348 348 346 347 347 347 347 346 346 344 343 344 344 344 343 344 344 343 343 340 333 330 330 326 322 322 322 323 323 323 325 327 329 330 328 329 326 319 320 321 320 316 313 312 312 321 332 334 335 336 336
345 343 350 358 351 347 345 344 347 346 346 343 345 345 348 363 357 351 356 354 355 355 353 353 351 351 350 350 348 347 347 344 343 344 344 343 343 345 346 347 348 348 346 347 348 348 349 348 347 348 346 345 346 346 345 343 343 344 344 344 344 344 343 342 342 338 332 331 329 325 323 322 322 323 323 323 325 325 326 327 327 328 325 318 316 317 317 314 311 310 310 322 332 334 336 337 337
348 341 352 359 344 350 353 344 347 349 346 344 349 347 349 360 354 351 356 353 355 354 353 352 350 351 350 349 348 347 346 344 344 345 345 345 344 345 346 348 349 349 347 346 347 348 348 348 348 349 347 344 345 346 344 343 344 344 344 344 344 343 342 341 339 336 333 331 328 325 323 323 323 321 321 321 322 322 323 324 324 324 320 315 313 312 312 310 309 308 312 325 333 334 336 336 336
349 337 348 355 343 355 359 341 345 351 348 345 348 351 352 352 349 351 355 352 355 353 353 352 351 353 351 350 349 347 347 346 345 345 346 346 346 346 347 348 350 350 349 348 347 347 347 347 348 349 347 343 345 345 344 344 345 344 345 344 343 342 341 340 338 336 334 332 329 325 324 323 322 319 319 319 320 321 320 319 319 317 313 311 310 308 308 308 308 310 318 329 332 332 335 336 336
348 343 348 349 343 350 353 343 344 347 350 348 346 355 361 354 346 349 352 351 353 352 351 352 351 352 351 351 351 349 349 347 347 346 346 346 347 347 347 349 350 351 350 350 348 346 347 347 348 350 347 343 345 346 345 345 346 344 345 344 343 343 341 339 338 337 335 333 330 326 324 323 321 319 318 317 318 318 316 314 314 313 310 309 308 307 307 309 311 315 323 329 330 330 332 335 337
343 345 347 347 345 344 348 349 344 342 350 351 348 353 360 358 346 345 349 349 349 350 350 350 350 351 352 352 351 350 349 348 347 347 347 347 348 347 348 348 349 349 350 350 349 347 347 346 347 349 346 344 346 347 346 346 345 345 345 344 344 343 340 339 338 338 336 333 331 327 324 323 321 318 315 315 314 313 311 310 310 311 309 309 309 307 309 314 317 318 320 323 324 323 325 332 336
337 338 339 341 344 342 344 350 345 345 350 351 351 350 352 353 347 343 345 348 347 347 347 348 348 349 351 351 351 351 349 348 347 347 348 348 349 348 349 349 348 348 349 350 350 349 348 347 347 348 346 345 346 347 346 346 346 345 344 342 342 341 339 339 338 338 337 334 331 327 324 324 321 315 312 312 310 309 310 309 309 311 312 312 312 311 313 318 322 320 319 318 319 317 317 328 335
337 340 339 336 339 341 344 347 345 344 346 348 351 350 349 350 348 344 343 346 346 344 345 345 345 347 348 349 350 350 349 348 347 347 348 349 349 349 349 348 348 347 347 349 351 350 349 347 347 346 345 345 346 346 346 346 346 344 342 341 340 339 339 339 338 338 337 334 331 327 324 324 318 310 309 309 308 309 310 310 312 316 317 316 314 314 315 319 323 323 321 321 321 316 314 324 332
334 337 338 337 338 338 342 345 343 343 344 345 347 349 349 347 349 346 341 344 344 342 343 344 345 345 346 347 348 349 348 346 346 347 349 348 347 348 348 347 347 347 346 348 350 349 349 347 346 345 345 345 346 346 346 346 346 344 343 342 340 340 339 339 338 338 336 334 331 326 324 322 313 307 308 307 307 309 310 314 319 320 320 317 315 316 317 320 324 323 324 325 323 316 314 322 330
329 328 331 331 333 336 339 343 342 341 342 343 346 347 347 347 348 346 341 342 344 342 342 341 342 344 344 347 347 347 346 345 346 347 348 348 347 347 347 347 347 346 346 348 348 348 348 347 345 344 344 345 346 346 345 346 346 344 343 342 341 341 340 339 339 338 336 333 330 325 322 317 309 307 307 306 307 310 313 319 320 320 319 317 315 315 318 324 327 327 327 325 321 316 314 321 330
328 326 325 323 327 330 331 339 342 342 341 344 346 342 344 347 346 346 341 340 342 342 342 341 341 342 343 345 346 346 346 345 345 346 346 347 346 347 347 347 346 345 345 346 346 347 348 347 345 344 345 346 346 346 345 346 346 344 343 342 342 341 339 339 338 337 335 333 331 326 318 312 307 306 306 306 308 311 316 320 319 319 320 319 316 314 317 326 328 328 327 325 322 316 314 321 328
328 327 324 323 328 325 324 331 338 340 340 345 347 342 349 352 345 347 343 339 342 341 342 343 341 342 343 344 344 345 345 345 345 345 345 345 346 347 347 347 347 345 346 347 347 348 347 347 345 344 345 346 347 346 345 346 346 344 344 343 342 340 339 339 338 337 336 334 333 326 315 309 306 306 306 306 309 312 315 318 318 319 318 318 316 311 313 323 329 328 327 327 324 318 314 319 323
330 331 325 325 329 326 325 326 331 339 337 344 346 340 352 358 345 346 345 339 342 341 341 343 342 342 342 343 344 344 345 345 345 344 345 345 346 346 347 347 346 346 347 348 348 348 347 347 345 344 345 346 347 346 346 346 345 345 343 342 341 340 339 338 338 338 336 335 334 325 313 307 306 306 306 308 310 313 315 317 317 318 318 317 313 309 308 316 325 328 328 327 324 320 317 318 322
327 330 330 328 329 327 326 326 329 333 332 340 338 325 339 357 346 345 346 343 345 342 341 342 342 344 342 342 343 343 345 344 344 345 343 345 346 346 347 346 345 346 348 349 349 348 347 346 345 344 345 347 347 347 346 346 345 344 343 342 341 340 339 338 338 337 336 335 334 325 312 306 306 306 307 309 313 314 315 315 315 315 317 315 311 308 307 309 314 322 326 326 323 322 319 318 322
322 330 333 328 328 326 326 326 324 323 325 335 332 319 327 344 346 349 347 344 348 346 343 342 341 344 343 343 344 343 344 344 344 344 343 345 346 347 347 346 347 348 348 349 349 349 348 347 346 344 345 347 347 346 346 346 345 344 343 343 341 341 340 338 337 336 336 336 332 322 312 306 305 306 307 310 314 315 316 316 315 315 315 314 312 310 309 308 310 313 319 322 320 319 319 318 322
323 333 332 328 329 325 324 325 321 324 325 327 332 325 323 331 341 349 348 346 350 351 348 344 342 343 344 343 343 344 344 344 345 344 344 344 345 346 347 347 348 348 349 349 349 349 349 349 347 344 345 348 347 346 346 346 345 344 344 343 342 341 340 338 337 335 336 335 328 320 313 308 306 307 308 310 313 315 318 320 320 319 318 317 316 312 309 310 311 310 312 314 314 316 317 318 321
328 331 329 327 327 326 326 325 322 327 323 318 326 324 320 331 343 347 349 348 348 351 349 345 343 343 344 344 344 344 344 343 344 343 343 344 345 346 346 347 348 349 349 348 349 350 350 350 347 345 346 347 347 346 346 347 346 344 344 343 342 341 340 338 337 336 336 332 326 321 315 310 309 310 313 315 314 314 317 320 322 321 321 320 318 313 309 310 311 311 311 312 313 316 318 319 319
328 328 329 328 328 328 326 324 322 324 320 315 320 320 317 329 342 346 348 347 346 348 347 344 343 343 344 343 343 344 344 344 344 343 343 344 345 345 346 348 348 348 349 349 350 350 350 350 348 347 347 346 347 346 346 347 346 345 345 343 342 340 338 338 337 337 335 330 325 321 316 313 313 313 316 318 317 315 315 317 321 322 321 320 319 315 311 311 312 314 314 315 315 315 317 319 319
326 327 329 326 330 333 332 335 327 319 318 317 318 321 318 321 336 348 347 345 347 347 347 345 343 342 344 344 344 344 343 344 344 344 343 344 345 347 347 348 348 350 350 351 351 351 350 350 348 348 348 346 346 346 346 347 347 345 344 343 342 340 338 337 337 337 334 329 324 320 317 318 318 317 317 316 315 314 312 312 315 320 322 321 320 317 312 312 315 317 317 317 317 315 315 318 320
325 328 328 323 328 335 339 345 332 315 318 322 319 322 321 320 335 350 346 345 347 345 346 348 345 343 343 343 344 344 343 344 344 344 344 344 345 347 348 349 350 351 352 353 352 352 351 350 350 350 347 347 347 347 347 347 346 346 344 343 342 340 338 338 338 337 335 331 325 319 319 321 322 321 320 317 313 311 310 310 310 314 319 319 317 315 313 313 316 318 318 317 318 317 316 316 317
325 328 326 318 320 324 328 333 326 317 321 324 321 325 328 329 338 347 346 347 348 346 345 345 344 343 343 344 344 343 345 345 344 344 344 344 344 345 347 349 351 353 353 354 354 353 353 352 352 351 348 348 348 348 348 347 346 345 344 343 341 339 339 339 338 337 336 332 322 318 320 322 322 322 321 318 313 309 308 308 308 310 312 311 311 312 313 314 317 318 318 318 318 318 317 315 314
325 324 323 317 317 317 320 326 322 319 322 322 322 327 328 332 338 342 344 344 345 344 344 344 343 343 342 344 344 344 345 344 344 344 344 345 345 344 345 348 351 354 354 355 354 354 354 354 353 352 350 349 349 348 348 346 346 344 344 342 340 340 340 339 338 337 335 330 320 318 322 322 321 322 322 319 315 311 307 307 310 310 309 308 309 312 312 314 318 319 319 319 319 319 319 317 313
325 327 325 319 321 318 318 323 318 317 320 320 323 328 326 328 336 341 343 342 344 344 344 345 343 344 343 343 344 344 344 345 344 344 344 344 345 345 345 348 353 355 355 356 356 355 355 355 354 352 350 351 350 348 347 346 345 344 343 341 340 341 340 339 338 336 335 329 321 320 322 322 322 322 322 320 315 312 308 308 310 311 311 311 311 310 309 312 316 319 319 319 318 317 316 314 311
326 328 323 319 324 323 318 321 320 318 318 319 322 326 330 335 340 344 346 348 350 347 345 348 346 345 346 344 345 344 344 345 344 345 346 345 345 346 348 350 354 355 356 356 355 354 355 355 354 352 351 351 351 349 347 345 345 344 343 341 341 340 339 338 337 335 334 329 321 321 322 323 323 322 323 320 314 311 308 307 309 310 312 314 311 310 310 311 313 315 316 316 315 315 313 311 310
326 322 321 322 327 325 317 319 325 321 315 318 325 328 335 344 343 344 351 354 357 358 355 354 350 348 347 347 347 346 345 346 345 346 346 346 346 348 349 351 353 355 356 355 353 352 353 354 354 353 351 350 350 348 347 346 345 343 342 341 341 340 339 338 336 334 333 328 322 322 323 323 323 324 323 318 312 312 310 307 307 308 310 312 312 313 314 315 314 314 315 316 317 318 317 316 314
326 321 324 326 325 326 322 318 322 322 316 320 330 333 337 341 339 345 357 355 358 366 365 360 356 352 350 350 350 348 348 347 347 347 347 348 349 348 349 352 355 357 356 355 354 353 353 353 353 353 352 351 350 348 347 346 344 343 342 342 340 339 339 337 335 334 332 327 323 323 324 325 325 324 322 316 314 318 315 310 309 310 312 313 313 317 319 318 319 318 318 319 319 319 319 318 317
325 323 327 326 320 320 321 317 318 319 318 323 334 340 342 341 342 350 357 353 354 363 369 370 365 358 356 354 351 351 352 353 351 350 349 349 349 349 352 354 356 358 357 355 354 354 355 355 354 353 353 351 351 349 347 345 344 343 343 342 340 339 337 335 334 332 331 327 323 322 324 324 321 319 318 316 318 320 318 315 314 314 315 316 316 318 320 320 320 320 319 319 319 320 319 319 318
325 325 326 327 322 319 320 321 319 317 320 327 334 340 347 354 357 357 358 358 356 361 372 373 364 360 360 358 357 356 357 359 356 352 351 352 352 354 355 356 356 357 356 355 354 354 356 355 354 354 353 351 351 350 347 345 344 344 342 340 340 338 336 334 333 332 330 327 322 323 323 319 316 318 319 319 321 321 319 319 319 317 316 316 318 319 319 320 320 319 319 320 320 320 319 319 318
324 322 322 323 323 321 320 320 320 317 321 330 336 342 355 366 365 358 360 363 361 363 372 370 360 359 360 361 362 363 362 362 359 356 355 355 356 356 355 356 356 356 356 354 352 354 355 355 354 353 353 352 351 349 347 345 344 343 341 340 340 338 336 334 332 331 330 325 322 323 322 318 317 320 321 321 321 321 320 319 320 319 316 315 317 318 319 320 319 318 319 319 320 320 320 319 318
325 323 323 321 320 322 317 317 324 320 316 327 342 349 356 363 360 359 363 363 361 362 365 363 359 358 358 360 363 363 363 363 362 361 358 357 356 354 354 354 352 353 355 353 352 353 353 354 353 353 352 350 347 348 347 346 345 343 341 341 340 337 336 334 332 331 329 325 323 322 322 321 320 319 319 320 320 320 320 318 319 318 316 316 318 318 319 319 319 319 319 319 320 320 320 320 318
Wind_Speed
13 13 11 9 7 5 3 2 1 1 1 2 1 0 1 1 1 2 3 2 1 0 2 7 7 9 7 8 10 12 12 3 2 3 4 11 17 16 17 19 19 19 19 19 19 17 16 15 15 16 16 17 16 14 14 13 13 12 12 12 11 11 11 11 11 10 9 9 9 9 9 8 7 6 5 5 4 4 4 3 3 3 3 3 3 4 4 3 4 4 4 4 4 4 4 4 4
12 11 9 7 5 3 2 1 0 1 1 2 1 0 1 1 0 3 3 1 3 5 7 13 17 16 14 13 11 12 16 10 10 14 16 19 20 15 16 19 19 20 19 19 18 17 16 15 15 15 15 15 15 14 14 14 13 12 12 12 12 11 11 11 10 10 9 8 8 8 8 8 7 6 5 4 4 4 3 3 2 2 2 2 3 3 3 2 2 2 2 3 3 3 3 3 3
10 9 7 6 4 2 3 2 1 1 2 2 1 1 1 1 4 5 7 6 6 6 8 12 13 11 11 10 9 8 8 12 19 22 23 21 19 18 16 18 19 19 19 19 18 17 17 15 14 15 15 15 15 15 15 14 13 12 12 11 12 11 10 10 10 9 9 9 8 8 7 7 7 6 5 5 4 3 3 3 2 2 2 2 2 2 1 0 1 1 1 2 2 3 3 3 4
8 7 6 5 3 1 2 2 1 2 3 2 2 1 3 2 6 6 9 8 5 5 7 8 7 7 11 10 8 9 8 12 15 18 21 18 16 18 17 18 19 18 18 19 18 17 17 16 15 15 15 15 15 15 15 14 13 12 12 11 11 11 10 9 8 8 8 8 8 7 6 5 5 5 5 4 4 4 3 3 3 2 2 2 2 1 0 1 2 2 3 4 5 5 6 6 6
6 6 6 4 2 1 1 1 1 3 2 2 2 1 5 3 4 3 5 5 4 7 7 5 4 6 11 10 6 6 10 14 13 14 18 16 15 17 18 19 19 18 18 18 19 18 17 17 16 16 16 16 15 15 14 14 13 12 12 11 10 10 9 8 8 8 8 7 7 7 6 6 6 5 5 5 5 4 4 3 3 2 2 2 1 1 2 4 4 5 6 6 7 8 8 8 8
6 5 4 2 1 1 2 2 3 3 1 2 4 4 5 4 5 6 7 8 9 10 9 8 8 9 10 10 9 8 11 14 14 14 17 19 18 17 19 21 19 17 17 18 19 18 18 17 16 16 16 16 15 15 14 13 13 12 12 11 10 10 9 9 9 8 8 8 8 8 7 7 6 6 5 5 5 4 3 3 2 2 2 2 3 4 5 6 6 6 7 7 8 9 9 10 10
5 3 3 2 1 1 2 3 3 2 1 1 5 5 5 6 8 8 7 9 11 11 11 9 10 9 5 4 7 8 10 12 15 14 16 20 20 19 20 20 17 16 16 18 18 18 17 17 17 16 16 16 15 14 14 13 13 13 12 12 11 10 10 9 10 10 9 9 9 8 8 7 6 6 5 4 4 3 2 2 3 4 4 5 6 7 8 8 8 7 7 8 8 8 9 9 10
4 1 1 0 1 2 3 4 3 2 2 1 4 6 8 11 10 6 4 5 6 7 10 10 11 9 5 7 9 10 13 13 14 14 16 20 21 20 19 17 14 13 14 16 18 18 17 17 17 17 16 16 15 14 13 13 13 12 12 11 11 11 11 10 11 10 10 9 8 8 8 8 7 6 5 4 3 3 3 4 5 6 7 8 9 9 9 9 9 8 8 7 7 6 6 7 7
3 2 1 2 2 2 3 3 3 2 2 3 4 8 12 12 10 7 5 5 7 9 10 9 11 10 7 12 14 16 20 16 14 16 19 22 21 18 16 13 9 9 12 15 17 19 19 17 17 17 17 16 15 15 14 13 12 12 12 11 11 11 10 10 9 8 8 8 8 8 8 7 6 6 5 4 4 4 5 6 7 8 9 9 9 9 9 9 8 8 7 6 5 4 4 4 4
2 2 1 1 3 4 4 3 2 2 2 5 5 10 12 11 11 12 8 5 8 8 8 11 13 14 10 10 10 15 22 20 18 20 22 23 19 14 13 12 7 4 9 15 17 19 19 18 17 17 16 16 15 15 14 14 12 12 12 11 11 9 8 8 8 7 7 8 8 7 7 6 5 5 4 4 5 6 7 7 7 7 8 9 9 8 8 7 6 5 4 4 3 3 3 3 4
2 2 0 2 3 3 4 3 3 3 3 4 6 11 11 11 12 11 10 7 10 10 13 17 13 14 12 7 9 13 19 20 21 23 23 22 18 14 13 12 7 3 7 13 17 17 18 18 17 16 15 15 15 14 13 13 12 12 11 10 8 7 6 7 7 7 7 7 7 7 6 6 5 5 5 6 6 7 7 6 6 6 6 6 7 6 5 4 4 3 3 2 2 3 3 4 4
2 2 1 3 3 2 3 4 4 4 4 4 5 10 10 14 13 8 10 9 12 14 14 15 12 14 9 4 10 15 17 20 22 23 21 21 19 15 12 10 7 5 6 11 14 15 15 16 16 15 14 13 12 12 11 10 10 9 8 7 6 6 6 6 6 7 6 6 7 7 7 6 6 6 6 6 6 5 4 4 4 4 4 3 3 2 1 1 1 2 2 2 3 3 3 3 3
2 1 2 3 1 1 2 3 5 4 3 4 5 8 11 14 12 11 13 11 12 10 7 13 18 15 6 5 12 17 19 20 21 22 21 21 19 16 13 11 7 6 8 10 12 12 13 13 12 11 10 10 10 10 9 8 7 7 6 6 6 6 6 5 5 5 5 6 6 7 6 6 6 5 5 5 4 3 2 2 2 1 1 1 2 1 1 0 1 2 2 2 3 2 2 1 1
3 2 3 2 1 1 2 2 4 4 3 4 5 9 11 11 12 16 15 10 8 7 8 17 21 13 7 8 11 17 22 20 20 21 22 20 19 17 14 12 7 7 10 10 11 12 11 11 10 9 8 8 9 9 8 7 7 6 6 6 6 6 5 5 5 5 6 6 6 6 5 6 5 4 4 3 1 1 3 3 4 3 3 3 2 1 1 2 3 3 4 4 4 5 5 5 5
4 2 3 2 2 2 1 2 4 5 3 4 7 11 11 9 13 16 16 11 6 10 15 17 17 10 11 13 12 21 24 20 20 21 21 19 17 15 13 11 8 9 10 10 12 12 11 11 10 9 8 8 8 8 7 7 6 6 6 6 6 5 5 5 5 6 6 6 6 6 6 6 4 3 2 1 4 5 5 5 5 4 3 4 3 2 2 4 5 5 5 6 6 6 6 5 4
7 2 4 2 1 1 2 3 3 3 3 5 10 12 9 8 15 15 14 13 10 17 17 13 15 9 16 24 23 26 24 21 20 19 19 16 15 13 12 11 9 9 9 10 12 12 12 11 11 10 10 9 9 9 7 7 6 6 6 6 5 5 5 4 5 6 6 6 7 7 6 5 3 2 3 6 8 7 6 5 5 4 4 4 3 2 3 4 5 5 6 6 5 4 4 3 2
8 1 4 2 2 3 3 5 5 3 4 5 10 13 8 6 14 13 11 14 16 21 13 10 15 10 17 27 27 27 23 22 19 17 18 16 17 15 13 12 11 11 10 11 13 13 12 10 11 10 9 9 9 8 7 7 6 6 5 5 5 5 4 4 5 6 7 7 7 6 5 3 3 5 8 9 8 6 5 4 4 4 4 4 3 2 3 4 4 2 3 4 3 3 2 2 1
8 2 2 2 3 5 6 7 7 5 4 7 12 16 11 8 14 14 12 13 17 19 10 11 15 11 15 24 27 28 23 23 21 18 19 19 19 17 15 14 12 12 11 11 13 13 11 9 10 9 9 9 8 8 7 7 6 5 5 5 6 5 4 5 6 6 7 7 6 3 2 4 7 8 9 8 7 5 4 3 3 3 3 3 3 3 3 2 1 1 0 1 2 2 3 2 1
9 2 2 3 4 9 13 12 11 10 9 12 16 19 14 13 18 18 12 11 16 12 7 12 15 14 19 23 27 29 25 24 23 21 21 22 21 20 17 16 14 13 12 12 12 10 8 8 8 7 8 8 8 7 7 7 6 5 5 6 6 5 5 5 6 6 5 3 3 6 8 8 9 8 7 6 5 3 2 1 2 2 3 4 4 4 4 3 0 3 4 3 3 4 5 2 1
11 5 1 5 5 9 17 19 20 19 19 16 16 19 15 16 21 19 13 12 13 11 11 14 17 21 23 24 28 31 28 25 25 24 23 24 23 21 18 17 16 15 14 12 10 9 7 7 7 7 7 7 7 7 6 6 5 5 5 6 5 4 4 4 4 2 3 7 11 12 10 9 8 7 6 5 4 2 1 1 1 2 4 5 5 4 4 2 1 5 6 5 5 7 6 2 2
8 8 3 5 9 7 14 25 25 23 24 21 18 17 14 19 21 17 17 11 7 13 20 20 22 25 24 27 31 33 30 27 28 27 25 25 23 21 19 16 15 16 15 13 11 9 9 8 8 8 8 6 5 6 6 5 5 5 5 4 3 3 3 1 3 6 9 11 12 11 9 8 7 6 6 5 4 2 0 1 4 5 5 5 5 4 3 1 3 6 7 6 7 9 6 5 4
6 8 8 14 14 7 15 26 24 22 24 21 18 15 15 22 19 18 22 12 10 21 24 22 24 26 26 32 35 33 31 30 30 28 26 25 23 21 20 18 18 18 17 15 13 11 10 10 9 8 7 6 6 6 5 5 5 5 4 3 2 2 3 6 8 9 9 9 9 8 7 7 6 5 4 3 1 1 1 2 6 7 7 6 5 5 4 3 5 6 6 6 6 6 4 7 6
3 5 9 17 14 10 18 23 20 22 23 19 19 18 19 20 14 21 27 19 20 26 24 21 23 24 26 33 36 33 32 32 31 29 27 25 24 23 23 22 20 20 19 17 14 12 11 10 9 8 7 7 7 7 6 6 5 4 3 2 3 5 8 8 8 8 8 7 6 5 5 5 3 2 1 2 2 3 3 5 7 7 7 7 6 5 5 7 8 8 6 6 5 2 3 6 4
3 3 6 14 16 15 19 20 18 22 22 21 22 19 20 17 12 20 27 22 21 24 23 21 23 24 26 33 36 34 33 31 29 28 26 25 25 24 24 23 21 20 20 17 16 14 12 11 10 9 8 8 7 7 7 6 5 4 3 4 7 8 8 8 7 7 7 6 4 3 3 2 2 2 2 3 4 5 6 7 7 7 7 6 6 5 6 8 9 8 6 4 2 2 4 4 4
2 3 6 12 16 17 18 18 17 19 16 17 21 17 18 19 14 17 22 21 20 24 25 21 23 26 28 34 35 32 31 28 27 26 24 24 25 23 24 24 21 21 20 18 17 15 13 11 10 9 9 8 7 7 7 6 5 3 4 7 10 9 8 8 7 7 5 4 2 2 2 2 3 4 5 5 6 7 8 7 6 7 7 5 4 4 5 7 8 7 3 0 3 7 7 6 5
5 8 11 10 13 16 18 15 13 14 11 14 17 9 13 20 13 8 15 20 22 26 26 23 26 29 31 34 32 30 29 27 27 26 24 23 22 21 25 25 20 19 19 18 17 16 14 11 10 9 8 8 7 7 7 5 4 5 7 10 11 11 9 8 7 5 3 2 0 1 1 3 4 5 5 5 5 6 6 5 5 6 6 5 4 4 5 6 7 5 1 3 7 9 7 6 6
12 12 15 14 15 16 17 16 14 12 8 12 13 7 12 19 10 3 11 22 26 29 28 27 29 31 32 32 31 29 26 27 27 26 25 24 23 23 25 23 19 18 18 18 17 15 13 11 10 10 9 9 8 7 7 6 6 8 11 12 12 11 8 7 5 3 1 1 1 0 1 2 3 3 4 4 4 4 4 4 5 6 5 4 5 6 7 7 7 4 2 7 10 8 6 6 7
16 12 10 7 12 14 15 16 15 12 5 9 11 6 8 11 6 9 20 26 29 31 30 30 30 31 33 32 32 29 26 28 27 27 27 26 25 25 24 22 20 19 19 18 16 15 13 12 11 11 11 10 10 9 8 8 9 12 13 12 11 9 7 5 2 1 1 1 1 1 1 2 2 2 3 3 4 4 4 5 5 6 6 6 6 8 9 8 6 2 4 9 10 7 6 8 8
13 10 6 3 3 7 13 13 15 13 5 12 13 4 3 6 6 17 28 30 30 31 31 31 31 32 32 32 32 30 28 29 29 30 29 28 26 25 24 21 19 19 19 18 16 16 15 13 12 11 11 11 10 10 9 11 13 14 13 11 10 7 5 3 0 1 1 2 2 2 3 2 1 2 3 3 4 5 6 6 6 8 9 8 9 10 10 9 6 1 6 10 9 7 9 11 10
5 5 4 1 4 1 12 11 14 11 8 17 14 3 6 7 8 24 32 32 30 27 29 31 31 31 31 31 32 31 31 32 32 32 31 29 26 24 23 21 19 17 18 18 18 17 16 14 12 12 11 11 12 11 12 14 14 14 12 11 8 5 4 2 2 3 3 2 2 2 2 1 1 2 3 4 5 6 8 8 9 9 10 11 11 12 10 8 5 3 8 11 9 9 11 12 11
2 2 3 3 1 4 8 9 12 7 8 21 12 3 8 8 10 29 32 32 31 27 28 30 31 32 32 32 32 31 31 33 34 34 32 29 25 22 21 21 19 17 17 18 18 17 17 15 13 12 12 12 14 13 14 16 15 14 13 10 8 6 4 3 3 3 3 2 2 2 1 0 1 2 4 5 6 8 9 11 10 9 10 11 10 9 7 4 2 6 10 12 11 11 12 12 11
2 2 3 1 3 4 5 7 15 8 8 18 10 2 7 7 13 30 33 33 32 28 29 30 31 33 33 33 32 31 30 31 34 34 32 29 25 22 21 21 20 19 18 17 17 18 17 15 13 13 12 13 15 14 16 17 15 14 13 11 9 8 7 5 2 2 1 0 1 1 0 0 1 3 5 6 8 9 10 11 11 8 6 6 5 3 1 2 6 8 12 13 11 11 12 12 11
2 3 3 3 4 3 4 6 15 13 8 11 9 3 4 5 14 29 33 33 31 27 29 31 32 34 34 34 33 32 31 30 33 33 32 29 27 24 22 21 20 19 19 18 18 18 17 16 14 13 13 14 16 16 18 17 16 16 15 13 12 11 9 6 3 0 1 1 0 1 1 1 2 4 6 7 8 10 10 10 8 5 1 1 2 3 5 7 9 10 12 13 11 11 11 12 11
3 1 3 4 5 3 2 4 10 14 10 9 11 6 5 5 15 29 33 35 31 26 28 31 33 34 35 35 34 33 32 33 34 34 32 30 27 25 23 21 20 19 19 19 18 17 16 16 14 14 13 15 16 17 19 18 17 18 17 15 13 12 10 8 5 2 2 2 2 2 1 1 4 5 6 7 8 9 8 7 4 3 5 6 7 7 9 10 10 10 10 10 9 9 10 11 11
4 5 4 5 5 5 6 4 7 14 11 10 10 9 10 6 12 26 34 36 32 28 30 31 33 34 34 35 34 33 34 35 36 35 33 30 28 26 24 22 21 21 20 20 19 17 17 16 15 15 15 16 17 19 20 20 20 20 18 15 14 14 12 9 6 5 5 4 3 2 2 1 4 6 6 7 7 6 5 3 3 6 7 8 9 8 10 12 11 9 8 7 6 5 8 12 11
8 9 8 7 6 6 9 8 9 14 12 10 11 12 12 8 8 19 29 35 32 29 29 29 30 32 32 34 35 35 35 36 36 35 32 30 29 28 26 24 23 22 21 21 20 19 18 17 16 16 17 18 19 21 22 22 23 22 19 17 16 15 13 10 9 8 6 4 3 3 2 2 5 4 4 5 4 4 4 5 8 9 7 8 9 8 9 12 11 9 7 5 4 4 9 14 13
10 8 8 9 8 7 9 9 8 13 11 10 13 14 11 9 9 15 26 31 27 24 24 26 28 29 32 35 36 37 36 35 33 33 32 30 30 29 28 26 24 24 22 22 22 20 19 18 18 17 19 20 20 23 24 24 25 24 22 20 19 17 15 13 11 9 6 4 3 3 2 5 6 3 1 1 2 4 8 11 11 8 6 6 8 8 8 10 10 8 7 5 3 4 9 14 15
7 3 4 5 7 8 9 10 11 12 9 10 12 11 9 9 9 14 21 21 21 25 24 26 29 30 33 35 38 39 36 34 32 33 33 32 32 31 30 29 27 26 24 23 22 21 20 19 19 19 20 22 21 23 25 25 26 25 23 21 19 17 15 13 11 8 5 2 1 2 5 6 6 4 2 2 4 8 13 13 9 7 5 4 6 7 8 10 9 8 7 4 3 5 9 14 15
7 3 0 2 3 4 6 7 9 10 7 8 9 10 8 9 11 15 18 18 24 32 31 32 34 31 32 36 39 39 36 34 34 34 34 34 34 33 32 31 29 27 24 24 22 21 22 21 20 19 20 22 22 23 24 24 25 24 21 20 18 16 14 12 10 8 4 1 2 5 6 5 5 3 4 5 7 11 13 11 8 6 5 3 3 5 8 10 10 9 7 4 4 5 8 12 14
6 5 1 3 4 2 4 5 6 12 9 4 6 8 5 5 9 12 19 26 27 31 34 36 36 34 35 38 39 39 38 37 35 35 35 36 36 34 33 32 30 28 26 25 24 23 24 23 21 20 21 22 22 23 24 23 24 23 20 18 16 14 14 13 12 8 4 1 2 5 5 4 4 4 5 8 9 11 12 10 7 5 4 4 4 5 8 11 11 9 8 6 4 5 8 11 11
5 5 4 4 4 3 5 5 1 6 6 1 5 1 5 3 9 9 15 23 20 21 27 30 33 35 35 35 36 39 41 39 37 36 36 37 38 36 33 32 30 30 29 26 24 24 24 23 21 20 21 22 23 24 24 24 24 23 21 19 17 16 16 15 14 10 5 3 0 3 3 3 5 5 7 9 9 10 10 8 6 4 3 3 4 5 7 9 11 10 8 6 3 4 7 10 10
5 4 6 5 4 4 5 4 4 4 4 3 4 2 6 3 8 9 9 13 12 12 18 26 33 32 29 30 33 37 40 39 38 36 36 37 38 36 33 32 31 31 30 27 24 24 24 23 22 21 22 23 23 24 25 25 25 24 24 23 22 21 19 17 14 10 6 4 1 2 2 5 7 7 8 9 8 9 8 6 6 5 4 3 5 5 6 7 8 10 9 7 4 4 5 8 12
3 5 6 5 1 2 6 5 3 2 4 5 2 2 6 3 4 11 9 10 11 8 12 24 30 28 28 30 32 36 39 39 38 36 36 37 37 36 34 32 32 31 29 27 26 25 24 23 23 22 23 24 25 26 27 27 26 26 25 24 23 22 20 16 12 8 6 4 1 1 3 6 8 8 9 9 9 8 7 6 6 6 5 5 7 7 6 6 6 7 8 7 5 4 4 9 13
3 7 4 3 3 3 4 4 1 3 5 5 2 3 2 3 6 7 6 7 8 8 11 19 24 27 29 31 32 35 38 39 38 38 37 37 36 35 34 32 32 31 29 28 28 27 26 24 23 23 24 25 26 28 29 28 28 27 25 24 23 21 18 14 12 9 6 4 2 2 4 7 9 9 10 10 9 8 8 7 6 4 4 6 7 8 8 7 8 9 9 7 6 7 8 10 12
6 7 2 1 0 1 2 3 3 2 2 7 5 1 1 4 6 1 8 8 9 12 15 16 20 27 30 32 33 34 36 38 38 38 38 37 37 35 33 32 32 31 30 29 28 28 27 25 24 24 24 25 28 29 30 29 28 27 26 25 23 20 17 14 12 10 8 6 4 3 5 8 9 10 10 10 9 9 8 7 6 4 4 5 7 9 11 11 11 14 14 13 10 10 10 10 9
6 2 4 4 3 2 4 4 3 3 4 6 8 1 2 5 5 2 7 8 11 13 15 15 19 26 32 35 36 34 32 34 36 37 37 36 36 35 33 32 32 32 30 29 28 28 28 27 26 25 25 26 29 31 30 29 28 28 27 26 25 21 19 16 13 12 10 7 6 4 6 9 9 10 9 8 7 7 7 8 9 6 4 4 5 8 11 13 14 16 16 16 14 11 10 10 9
2 5 6 6 6 5 4 3 2 2 2 8 9 2 4 4 5 4 6 10 15 14 11 12 14 23 32 37 39 34 30 32 35 35 36 35 34 34 34 33 33 32 31 29 29 28 29 29 27 27 27 27 30 32 31 30 29 29 28 27 25 22 20 18 15 14 11 8 7 5 7 9 10 10 9 8 6 5 5 6 9 10 7 5 2 4 8 13 16 16 15 15 16 14 11 11 10
3 5 5 3 6 5 5 5 3 1 4 8 9 2 6 2 5 6 7 9 11 12 12 12 13 24 34 37 38 36 32 32 33 34 35 35 35 34 34 35 34 33 32 30 29 28 28 29 28 28 28 28 31 32 30 30 30 29 28 26 24 23 21 18 16 15 11 9 8 6 9 10 10 10 8 8 7 5 4 5 8 10 9 6 3 3 7 13 17 16 14 14 14 14 13 11 11
4 3 5 4 3 3 4 4 1 2 6 8 6 2 5 3 6 6 7 6 7 13 17 19 21 27 33 36 38 39 36 33 31 33 35 36 37 37 36 35 35 34 32 30 28 28 28 29 28 29 29 29 31 32 30 30 29 28 27 25 24 22 20 17 15 12 10 9 8 8 10 11 11 10 8 6 6 6 4 5 6 6 6 5 5 6 8 13 16 15 14 13 13 12 12 10 10
1 1 3 4 1 1 2 4 2 3 6 7 3 4 3 3 5 6 7 6 11 22 27 28 31 33 34 36 38 37 36 34 32 32 34 36 37 38 38 37 35 34 32 30 28 27 27 28 28 29 29 28 31 33 32 30 29 28 26 24 23 21 19 17 14 12 10 9 8 10 11 11 10 9 7 4 5 5 4 5 7 8 9 10 11 9 8 12 15 14 13 12 12 11 10 10 8
4 4 5 4 4 4 3 4 2 4 5 6 4 3 1 2 4 6 9 10 5 15 22 24 26 27 27 28 28 29 31 32 32 32 33 35 36 37 38 35 34 34 32 30 28 27 27 27 28 29 30 30 32 34 32 29 30 29 26 25 22 20 18 17 14 11 10 9 9 11 11 10 9 9 7 3 5 4 4 6 11 14 15 16 15 12 9 10 14 14 12 11 12 12 12 12 10
4 3 6 2 5 5 3 4 5 4 1 4 3 1 2 3 3 6 9 11 9 2 4 8 12 16 17 18 21 23 26 27 29 31 32 33 34 35 35 35 35 35 35 33 31 30 30 29 29 30 32 32 33 32 30 30 31 30 27 26 23 21 19 17 15 12 10 9 10 11 11 10 10 10 7 1 4 5 7 8 12 15 15 16 16 16 15 13 11 11 12 13 16 17 17 17 15
1 3 3 4 6 7 2 3 4 0 2 3 2 2 1 2 3 6 9 9 9 8 7 6 5 6 9 14 18 21 23 24 25 28 30 31 31 31 34 36 36 37 37 35 33 33 34 33 32 33 35 35 35 34 32 32 33 32 30 27 24 23 22 18 16 14 12 12 12 12 11 11 12 11 7 2 6 10 11 11 11 12 11 13 17 20 21 19 16 14 14 16 18 18 20 20 19
4 1 5 3 2 4 3 0 3 3 3 1 2 0 2 1 0 3 7 7 7 7 7 9 11 8 7 8 11 15 18 18 20 22 23 25 26 29 32 33 33 35 35 34 34 35 35 34 35 36 37 38 37 36 35 34 33 32 29 25 24 24 21 19 16 14 14 13 13 13 11 11 11 10 7 7 10 13 14 13 12 10 9 12 18 20 20 19 17 16 16 15 15 15 17 19 19
3 2 3 2 1 1 1 0 1 2 1 1 2 3 2 3 2 2 2 3 5 6 6 7 10 11 9 9 7 7 8 7 9 13 16 19 21 24 26 26 27 31 34 34 33 34 36 36 36 36 37 38 38 38 36 34 33 32 27 23 24 23 21 19 16 13 14 13 12 13 11 9 10 10 10 12 13 13 13 14 14 13 12 14 17 17 16 15 13 11 12 12 11 11 13 15 18
2 3 3 1 3 4 1 1 3 2 1 3 1 3 2 4 4 4 4 4 4 3 4 5 6 9 8 7 8 6 5 4 3 9 13 14 15 16 19 21 24 29 34 34 32 33 35 35 36 37 38 39 39 38 37 36 34 30 25 24 24 23 22 19 14 13 14 12 12 12 10 10 13 14 15 14 12 11 10 11 13 13 12 13 13 14 13 12 11 9 8 9 8 7 9 11 15
1 2 4 3 1 2 2 2 1 3 3 3 2 2 4 5 3 3 3 3 3 1 1 3 4 9 12 13 15 14 12 10 5 7 9 9 12 12 13 17 22 28 32 31 30 33 33 34 37 38 39 42 45 43 38 36 34 27 25 26 25 25 23 17 14 15 14 12 12 11 10 12 15 15 14 13 12 11 9 9 11 10 10 11 11 12 12 11 11 9 7 7 6 5 5 6 11
5 4 5 4 3 2 1 4 4 1 3 4 4 3 5 5 1 2 1 1 3 2 4 2 4 11 17 21 23 21 16 13 8 7 9 11 11 9 8 11 16 22 27 27 28 31 32 33 33 34 37 35 37 45 42 34 30 25 26 28 27 27 23 16 17 18 15 12 12 10 9 12 14 13 13 13 12 11 9 8 7 5 8 13 13 11 11 11 9 8 7 7 6 4 1 3 10
Wind_Direction
140 139 146 152 158 162 154 157 110 37 95 90 41 344 44 1 275 132 131 154 144 288 77 67 86 129 126 113 115 82 52 20 184 126 141 147 147 151 157 158 160 161 158 157 159 159 161 165 169 173 176 176 172 169 165 161 158 156 153 152 153 155 154 150 152 155 158 158 157 155 151 152 151 152 152 156 163 166 171 170 177 194 212 223 229 240 249 253 257 264 269 275 274 273 272 266 264
142 140 145 148 156 158 127 145 68 55 83 90 36 14 127 265 257 103 115 197 170 140 98 85 93 103 108 106 92 66 48 48 105 115 123 140 148 150 154 159 161 159 159 158 158 159 160 161 162 164 169 172 171 168 166 162 158 157 155 155 157 158 157 153 156 158 161 164 168 165 160 161 160 163 164 169 179 179 179 170 176 193 205 222 235 243 252 262 273 288 292 293 281 273 272 268 264
147 146 149 147 145 134 118 93 76 113 74 102 71 13 281 135 119 132 151 156 149 124 93 97 95 85 94 92 57 65 77 84 105 118 130 147 153 149 157 163 161 159 160 157 157 159 158 157 158 160 163 165 166 165 163 161 159 158 158 159 159 159 159 157 160 162 164 170 174 174 171 170 168 172 177 182 188 184 174 168 175 190 204 217 230 230 243 304 320 313 303 289 281 276 278 282 284
151 151 148 145 145 102 90 77 97 108 72 96 79 4 283 155 136 155 160 151 130 94 92 96 79 67 78 83 72 80 106 113 112 120 138 155 153 149 163 166 161 160 161 158 156 157 156 153 156 157 159 161 161 161 160 161 160 160 159 160 160 159 160 160 161 162 167 172 175 176 176 173 172 176 184 185 187 189 181 182 191 200 206 205 213 200 329 330 317 302 296 292 292 291 290 290 290
152 155 151 144 163 170 98 90 67 84 107 133 101 212 251 209 154 155 145 141 124 91 93 97 75 83 72 74 86 93 122 128 121 116 134 150 147 151 165 167 163 163 163 159 157 157 155 156 157 155 155 157 157 158 159 160 159 160 159 159 159 157 156 158 161 165 167 170 172 171 173 179 182 187 190 185 183 185 179 180 185 189 192 191 222 283 302 307 305 298 295 296 297 296 296 293 289
149 161 167 188 232 155 84 74 60 74 150 156 130 192 225 196 162 145 115 100 106 99 97 102 105 103 77 75 87 113 138 133 133 126 131 142 144 148 160 166 164 163 164 160 160 159 157 159 159 156 155 154 154 155 156 156 157 158 158 157 156 157 158 161 166 167 168 171 175 176 179 187 189 187 184 177 169 164 164 169 180 197 219 240 258 278 288 294 295 294 291 292 294 294 293 291 287
145 156 179 221 234 91 76 83 68 70 3 98 147 177 195 173 157 140 113 93 95 98 95 94 110 108 79 83 88 115 145 147 147 131 127 140 140 140 153 160 153 149 158 162 162 161 159 161 161 158 156 155 154 154 154 154 155 156 157 158 158 162 165 168 171 171 174 176 178 180 177 175 173 170 163 154 146 149 173 200 228 248 258 265 269 275 279 282 284 283 284 285 286 288 289 289 287
137 125 200 155 50 44 73 75 50 63 25 58 140 161 172 170 157 127 95 102 101 103 100 101 111 102 68 75 77 106 133 146 146 132 131 141 141 142 152 152 139 138 155 165 164 162 160 163 164 161 160 160 159 157 158 156 156 157 158 162 164 169 174 175 178 177 177 174 171 168 161 155 153 151 151 154 167 191 220 242 258 268 272 273 273 275 278 278 275 276 281 284 284 289 296 298 297
132 353 344 62 57 60 68 57 41 48 61 101 130 160 168 163 143 116 96 97 113 114 109 117 112 106 90 76 80 105 120 130 136 139 142 143 148 152 155 154 147 148 160 169 170 167 163 167 168 165 166 165 163 162 162 162 162 163 164 169 173 176 178 178 176 174 169 163 159 155 152 150 152 156 166 182 206 232 253 264 269 273 276 277 276 276 278 274 267 274 281 281 286 298 311 319 321
105 27 85 75 69 71 67 50 48 47 102 132 148 161 161 150 127 116 114 102 120 115 110 125 111 113 111 74 81 111 121 128 137 148 152 153 160 164 163 167 171 166 165 171 176 174 168 168 171 170 171 171 170 169 167 168 171 173 174 175 177 177 174 173 170 168 163 160 160 158 159 160 168 179 195 219 244 260 267 269 268 269 273 275 274 273 272 267 261 267 274 272 290 310 321 329 328
51 15 48 79 72 73 94 86 90 108 143 144 163 172 161 140 125 111 108 106 122 120 123 126 112 112 106 79 89 111 132 140 144 153 158 163 169 168 168 172 186 208 169 166 171 175 171 171 174 174 176 177 176 175 175 177 178 178 177 174 174 175 174 174 171 170 167 167 171 171 175 180 195 211 231 250 262 266 266 263 262 265 268 270 271 271 265 256 251 254 262 274 300 318 324 318 309
34 323 12 79 89 96 117 113 129 133 151 162 186 190 168 138 128 116 118 118 125 124 131 136 134 125 99 87 105 107 138 152 153 156 160 167 171 173 180 184 199 217 177 159 165 173 172 173 177 179 182 184 180 179 181 181 180 177 173 176 180 183 179 176 176 178 180 183 188 190 196 205 222 242 255 262 265 266 264 256 257 260 257 259 253 242 224 222 249 272 281 300 319 324 323 308 296
169 207 74 65 117 95 90 118 151 141 159 195 201 186 164 144 139 141 134 131 138 133 151 154 143 131 100 126 123 110 128 149 157 162 167 171 175 179 191 195 197 195 173 158 159 168 170 173 177 178 178 176 173 172 176 177 176 176 179 186 187 183 179 180 187 194 200 206 211 214 220 237 253 261 265 265 267 265 249 222 194 162 144 130 120 119 119 14 331 328 335 347 0 11 32 33 56
164 164 107 71 17 33 95 132 166 157 194 215 181 166 160 153 149 148 141 141 164 161 162 160 149 135 124 134 138 126 123 138 155 163 169 171 176 180 185 188 185 170 163 158 157 163 164 166 170 171 166 159 162 166 171 175 174 182 185 186 182 183 190 199 208 216 225 231 236 241 253 267 270 267 267 265 251 143 144 135 121 109 97 95 84 70 51 37 33 26 29 39 62 79 87 89 89
168 85 84 87 26 2 168 177 186 167 202 206 172 162 155 154 156 157 154 153 179 164 149 159 163 151 157 164 165 147 131 137 154 163 169 170 175 179 182 183 184 168 157 158 160 163 161 163 168 169 166 160 163 168 173 178 182 186 186 189 191 198 209 221 231 239 245 249 258 262 266 269 269 272 264 163 119 113 116 113 104 96 84 84 86 88 68 61 59 57 64 72 86 94 94 94 95
187 90 66 72 69 233 212 184 171 165 208 197 174 162 147 157 165 168 169 157 145 154 152 166 184 184 177 174 164 153 143 145 158 170 173 172 173 176 183 189 190 173 160 161 161 162 161 165 169 167 167 164 166 172 177 181 184 185 189 198 205 215 224 239 247 253 257 263 271 269 269 264 255 219 156 132 121 112 107 102 92 82 81 88 89 78 55 72 76 70 87 94 98 103 106 105 116
192 126 78 108 181 203 201 178 176 175 189 181 174 167 150 166 175 174 173 160 150 160 170 180 188 203 190 181 167 157 154 156 165 176 175 173 175 177 185 194 193 178 165 160 160 159 157 163 169 170 174 175 175 179 184 189 191 190 198 206 208 219 230 248 253 265 272 273 276 272 269 251 191 150 141 133 124 116 109 97 82 69 77 93 81 39 27 66 85 77 106 119 136 136 150 175 200
178 132 100 157 195 198 189 187 183 145 156 179 181 179 165 169 182 176 164 161 160 168 190 190 194 216 196 187 174 164 165 168 176 185 182 180 182 188 189 195 197 180 167 164 167 167 163 170 175 177 182 189 189 188 196 200 204 206 212 214 213 226 241 256 268 283 282 272 266 246 198 154 139 137 135 134 130 123 119 96 71 56 52 59 39 16 357 29 95 282 269 194 195 203 236 234 220
176 119 111 208 202 181 182 182 174 156 168 184 183 183 177 180 181 171 162 166 164 163 187 187 190 195 186 189 182 173 174 176 183 192 192 190 191 197 197 196 197 185 177 180 181 178 181 186 185 184 186 199 202 198 205 206 214 218 211 216 225 247 265 276 284 286 277 246 164 137 136 134 130 132 130 130 133 132 135 88 50 41 5 348 356 353 338 347 260 265 272 269 261 252 253 237 133
191 174 150 231 181 162 178 175 175 175 170 176 184 187 191 188 176 167 168 170 168 163 164 168 175 180 184 190 183 175 178 180 184 195 200 198 198 204 204 199 197 193 188 192 193 189 201 208 204 205 202 207 210 211 218 216 223 225 219 228 245 273 290 287 275 244 162 136 135 137 140 136 127 126 129 136 142 150 166 14 336 323 317 317 330 328 330 355 264 252 260 269 269 268 270 225 178
181 184 217 188 156 140 175 173 177 181 171 173 181 186 200 186 173 171 167 159 178 186 177 176 178 180 183 183 177 176 182 181 184 196 202 199 201 207 207 200 197 195 191 194 200 202 210 219 219 219 217 219 224 232 236 235 238 238 234 242 265 282 280 212 164 144 137 138 143 149 149 139 134 137 146 159 155 163 201 309 298 295 295 296 305 304 305 318 237 243 260 270 268 280 281 225 209
178 190 176 156 159 153 175 176 177 179 173 176 179 186 195 179 178 183 169 163 200 198 191 191 186 181 180 178 176 179 181 181 186 198 200 198 205 207 201 194 191 191 193 196 202 209 214 218 223 225 228 230 237 245 247 250 253 253 250 251 259 230 162 148 148 143 140 145 149 154 155 150 155 160 165 174 168 295 288 276 279 280 281 285 290 292 291 284 255 250 267 276 275 282 254 213 220
185 191 155 146 153 148 168 178 180 181 176 178 185 189 182 171 187 187 178 188 203 200 195 192 190 184 182 179 179 182 183 185 191 198 199 201 206 202 195 193 191 192 196 200 205 212 216 220 227 229 231 233 240 246 246 249 248 247 244 219 184 155 148 152 150 145 146 153 155 161 168 170 185 189 201 240 275 286 283 274 266 260 261 270 278 279 273 275 269 266 277 288 298 289 208 205 204
103 157 135 136 134 131 148 156 160 170 174 180 185 181 173 172 184 183 188 203 204 198 193 188 190 186 182 181 182 185 187 190 196 197 198 204 206 203 199 195 194 197 198 200 207 212 216 223 228 230 231 235 242 240 238 243 245 236 208 177 165 153 155 164 154 149 157 165 166 183 191 203 258 289 280 258 260 269 276 273 257 247 253 263 274 269 252 257 262 268 278 289 328 110 147 151 134
95 170 153 141 135 135 138 134 135 144 153 168 172 171 180 184 175 178 195 208 204 192 186 184 183 182 182 184 186 189 192 195 196 194 197 205 210 208 202 196 195 200 200 200 206 211 214 221 226 229 232 233 235 232 233 240 244 224 182 168 166 166 171 172 162 157 163 173 175 209 222 251 268 278 279 265 258 260 263 259 248 246 258 270 274 260 241 242 254 262 270 228 114 115 119 112 112
211 185 174 164 143 142 139 135 135 135 131 141 148 151 177 178 162 168 193 193 193 185 180 179 177 181 184 186 188 191 195 196 193 193 198 205 209 202 191 189 194 199 200 201 205 209 212 218 220 220 226 225 219 218 221 223 219 192 169 162 165 172 178 170 159 153 145 150 60 332 255 256 263 271 272 264 254 250 252 249 252 260 267 273 261 245 236 241 259 266 216 135 132 117 105 99 100
198 175 171 174 152 147 144 142 142 140 134 136 136 119 153 165 154 152 182 177 178 177 176 177 177 183 187 188 191 194 196 192 191 195 199 204 202 195 188 190 197 201 201 202 204 209 213 213 210 210 215 208 194 195 201 197 183 172 163 161 168 175 174 165 158 148 95 80 50 346 250 239 244 253 249 250 252 253 262 258 261 269 269 260 246 240 239 248 269 281 127 138 134 113 96 101 94
194 167 147 156 145 151 151 144 147 142 141 160 145 112 148 170 185 182 174 173 176 174 174 178 181 187 190 191 194 197 196 191 194 198 201 204 202 201 204 206 209 209 208 207 205 208 210 207 204 205 204 193 182 184 184 176 169 166 164 167 176 177 171 165 153 46 57 111 135 146 167 193 212 240 248 259 275 284 284 278 273 268 265 254 248 247 244 254 275 291 135 141 132 109 104 108 92
196 166 119 23 71 146 164 156 157 150 159 177 148 95 217 217 205 175 172 174 177 175 174 179 186 191 194 195 197 201 200 197 199 201 203 206 209 213 218 220 221 217 213 211 208 206 207 204 201 201 197 186 181 181 174 168 167 165 164 170 178 176 167 158 68 334 224 169 150 144 158 178 221 268 284 286 288 294 287 283 277 267 268 260 253 253 252 262 276 249 145 148 139 121 122 118 101
205 148 91 42 21 193 190 173 164 157 170 178 157 136 236 255 193 170 172 175 175 176 178 180 188 194 197 198 200 204 204 203 204 204 206 209 214 219 221 223 220 215 214 211 208 205 204 200 199 199 193 184 180 176 170 168 167 163 164 171 173 169 168 192 266 246 203 170 150 154 156 164 300 298 292 282 281 291 285 280 275 268 268 263 258 259 264 272 269 178 151 155 152 136 129 126 113
136 93 21 143 124 256 219 183 167 160 185 182 161 144 221 255 188 172 175 177 176 180 182 183 189 195 199 199 201 206 207 208 208 208 209 211 217 218 219 220 215 213 213 209 206 203 201 200 199 197 191 183 179 173 168 167 166 162 165 170 166 168 188 214 228 193 174 154 138 153 137 91 320 298 282 276 278 283 281 280 280 276 268 266 269 271 278 278 193 155 156 160 160 145 133 131 122
95 156 298 240 194 258 273 202 178 166 197 190 167 134 226 242 184 176 179 180 181 183 183 186 191 196 200 200 202 206 209 209 210 212 213 215 217 217 216 217 218 216 212 208 204 200 199 200 197 197 192 181 177 171 166 168 166 160 164 171 170 182 205 216 197 150 159 128 105 165 166 3 310 295 284 283 279 276 280 285 288 291 279 272 289 299 327 123 138 148 159 163 165 156 143 136 129
336 167 216 248 198 246 308 234 200 177 170 198 195 182 230 229 183 180 182 185 187 186 185 188 192 197 200 201 202 205 208 207 208 213 218 218 216 217 217 217 218 218 215 211 205 200 199 199 196 197 193 179 174 170 168 171 165 157 166 179 185 196 214 229 231 237 294 285 269 221 205 303 319 307 286 280 277 277 287 293 297 319 348 97 39 68 102 120 134 146 160 167 174 173 161 147 137
287 206 229 238 195 199 219 250 223 187 166 200 215 217 238 221 174 179 186 188 191 191 189 190 193 197 201 202 201 202 206 207 208 213 217 220 219 218 218 217 216 215 215 212 208 205 203 202 197 196 192 179 174 171 171 169 160 161 172 184 193 203 213 226 243 267 285 284 270 238 217 295 333 319 293 280 278 283 296 301 322 48 92 94 70 85 116 127 134 144 157 167 177 187 182 165 152
215 209 224 239 210 199 210 235 207 189 191 199 205 229 246 249 168 178 189 190 193 197 194 193 194 196 199 202 202 202 205 209 213 215 217 220 221 220 218 217 215 212 212 210 208 207 204 204 198 194 191 183 176 174 173 165 161 169 177 183 193 201 208 216 232 252 268 277 270 260 242 322 346 323 296 285 284 301 320 330 76 91 100 89 73 91 126 134 135 138 143 150 161 168 168 168 166
217 209 203 216 211 211 217 220 189 180 200 205 198 217 230 238 188 181 190 192 197 201 197 196 196 196 198 201 204 204 206 212 216 216 217 219 220 220 219 217 213 210 210 207 205 207 206 203 198 194 190 186 180 176 174 168 168 176 180 183 192 197 205 214 227 243 255 264 265 270 272 4 357 335 295 283 296 347 34 94 103 100 100 94 85 94 125 136 136 134 128 128 139 138 147 161 166
229 213 201 210 209 233 225 216 202 177 191 222 212 216 217 214 211 194 190 192 199 202 199 202 200 197 197 200 204 206 208 213 216 216 217 218 219 219 219 216 210 206 206 206 206 208 206 203 201 196 190 189 187 181 179 174 175 182 185 188 194 197 205 216 228 237 242 245 247 270 341 15 14 15 352 311 14 54 91 106 109 108 107 110 99 96 117 133 134 132 129 128 122 129 147 157 160
263 235 200 216 209 235 235 217 210 181 188 230 216 223 226 204 215 209 191 186 200 203 198 204 207 200 198 200 204 207 209 212 214 216 216 216 216 217 217 215 209 204 203 205 208 207 204 204 203 199 192 191 192 188 184 181 183 189 191 193 196 200 208 221 229 227 221 218 230 359 7 18 30 43 52 69 83 98 110 111 116 118 113 120 109 105 120 130 131 132 137 137 107 112 138 154 159
292 287 209 304 247 256 269 230 201 174 197 238 213 220 224 198 207 210 196 189 202 204 199 205 209 204 198 200 204 206 206 208 212 215 215 214 215 215 215 213 210 208 206 205 207 205 202 203 203 200 196 194 194 192 188 185 188 193 197 199 200 203 207 215 221 214 199 196 32 17 7 24 49 68 80 97 108 116 122 121 125 124 114 117 98 109 134 139 137 140 145 135 95 95 123 147 159
292 277 284 298 279 323 319 280 196 175 194 216 192 218 239 203 208 211 203 200 204 205 205 210 214 212 207 204 205 205 203 205 209 213 214 213 213 215 214 211 209 207 207 206 203 201 201 204 204 200 198 197 194 193 191 189 189 193 200 203 202 204 204 205 209 208 202 199 15 7 3 45 80 99 102 112 120 123 130 133 135 134 116 100 78 99 141 151 149 147 148 141 110 76 102 130 148
282 254 201 223 269 267 244 275 258 178 205 146 117 241 305 213 201 213 207 205 209 207 209 218 222 222 218 209 206 207 206 205 206 209 212 211 211 213 212 210 208 207 208 208 204 202 203 205 206 202 200 198 196 193 191 189 188 189 193 194 196 202 202 201 206 210 206 189 92 3 15 88 109 114 114 123 127 126 132 139 143 143 123 83 68 90 129 152 163 164 159 159 150 79 89 115 127
298 255 219 219 239 260 265 308 22 43 315 262 118 12 302 240 196 210 205 200 210 206 209 222 225 224 222 213 208 209 209 208 208 209 210 211 210 210 210 209 207 208 209 210 208 205 205 208 207 202 200 198 196 194 190 189 187 186 190 193 196 202 202 201 207 213 207 190 195 2 62 109 118 120 123 129 133 134 134 134 131 132 136 98 75 88 111 131 156 171 175 181 168 101 96 119 116
297 256 250 268 275 313 324 349 37 41 293 259 140 177 268 304 227 219 204 192 205 210 215 224 226 225 223 218 213 210 210 209 209 208 208 210 210 207 207 207 208 210 211 210 208 206 207 208 207 203 200 199 196 193 190 189 187 187 194 200 203 206 206 201 201 201 201 202 200 48 87 109 121 128 131 132 135 138 131 119 114 113 116 100 89 93 100 105 115 143 168 182 171 125 122 130 120
263 253 243 287 345 353 334 4 40 226 265 295 35 119 221 299 256 222 173 181 214 228 231 231 227 226 227 225 218 213 212 210 208 207 207 209 210 209 208 209 211 212 211 210 208 207 207 208 208 204 200 199 196 193 191 191 188 188 196 204 207 211 214 208 197 190 196 206 180 114 95 110 129 135 134 135 137 139 133 123 110 100 93 82 81 87 91 95 93 98 115 134 139 126 122 128 130
244 249 218 200 109 65 33 29 321 285 344 313 308 85 137 277 280 161 134 176 217 223 229 232 226 225 228 229 225 219 215 213 210 209 209 209 210 212 213 213 214 213 213 212 211 210 209 207 207 203 199 198 196 193 193 192 190 191 197 203 206 210 215 212 201 195 200 200 186 144 107 113 135 142 137 137 134 129 135 141 132 113 106 89 73 78 90 100 100 97 97 100 110 119 118 117 121
257 257 47 26 33 45 35 34 310 353 34 278 273 125 157 277 297 127 141 189 216 220 228 228 222 223 227 230 230 225 218 214 212 212 212 212 211 212 216 216 215 215 215 213 212 212 209 206 204 201 199 196 194 193 194 192 192 195 199 203 205 206 208 206 199 199 202 200 192 162 116 113 127 137 135 133 125 108 112 144 155 149 139 121 77 70 90 104 102 96 92 89 91 101 113 113 105
311 43 42 7 2 13 12 32 54 23 335 264 269 176 158 268 286 192 170 200 208 209 223 230 225 226 228 231 232 229 224 218 216 214 212 211 211 212 215 217 217 216 214 210 208 210 208 205 202 201 198 194 192 194 194 193 195 199 203 204 205 205 204 203 199 199 202 201 194 161 121 114 115 120 125 122 111 90 87 126 158 167 168 169 135 69 93 108 104 95 91 87 81 82 97 114 112
75 58 58 16 343 6 5 2 37 9 260 262 271 177 131 205 262 231 221 222 209 202 215 221 218 224 228 230 232 231 229 225 220 215 211 208 208 211 212 215 216 213 208 205 205 207 207 206 204 200 197 193 191 192 194 195 197 202 205 206 208 208 207 206 203 203 206 206 198 158 130 126 119 118 120 108 88 71 76 109 145 165 176 188 184 111 107 113 109 100 96 92 85 79 84 107 117
32 38 66 61 330 357 353 323 341 243 248 258 268 81 94 234 252 255 250 236 199 199 213 216 215 221 225 228 231 231 229 228 223 217 213 209 209 212 213 212 211 209 205 202 203 204 204 206 206 202 198 194 191 191 193 196 199 203 206 207 209 210 209 208 206 209 213 209 197 162 146 144 140 138 131 107 79 62 75 113 134 148 154 150 132 120 120 119 114 106 101 95 90 81 71 87 111
234 178 113 118 131 87 289 284 299 275 266 278 298 83 82 280 287 308 308 274 212 204 210 215 218 221 223 226 230 230 230 229 226 221 217 213 211 213 215 212 207 204 202 200 202 204 204 205 205 204 201 196 193 191 192 197 200 202 204 207 210 210 206 205 207 212 211 201 183 164 156 154 154 157 152 121 69 54 75 104 108 107 103 101 107 112 118 124 122 111 101 94 88 78 61 59 83
211 174 134 143 156 158 227 238 244 267 278 309 348 55 118 233 282 309 332 333 261 207 215 224 229 231 231 233 233 232 232 231 229 226 221 218 215 213 213 208 200 198 196 194 197 203 205 204 205 204 201 199 197 193 193 197 197 198 201 205 207 207 205 205 205 207 203 190 177 168 163 164 170 175 169 118 39 45 88 107 111 108 101 96 96 94 96 118 129 120 106 91 76 65 56 47 48
252 146 109 156 181 172 229 219 213 235 304 343 354 58 197 211 283 325 353 1 11 36 241 256 256 252 249 247 242 237 234 232 231 228 225 222 217 211 207 201 196 194 192 193 201 208 210 207 207 206 204 204 203 198 196 198 195 196 199 201 202 203 205 207 200 192 187 181 180 175 172 181 188 184 180 119 53 83 94 109 124 120 109 101 94 86 83 91 108 116 104 81 67 61 56 51 43
270 113 156 224 179 146 160 266 275 276 80 350 351 111 304 339 349 344 1 1 1 17 14 6 341 286 269 260 250 240 236 234 231 230 229 223 213 206 203 201 198 195 195 200 207 213 215 215 214 211 207 207 206 202 200 199 195 195 196 199 201 200 203 207 198 185 179 178 178 177 178 187 190 190 194 154 105 101 92 102 125 128 116 108 100 91 85 81 80 84 81 70 64 60 56 53 46
120 192 217 231 62 90 109 199 328 18 90 341 339 134 274 348 29 330 360 352 331 348 3 13 21 14 340 305 269 243 236 235 230 227 224 216 208 205 204 201 196 192 194 200 206 212 217 220 220 215 210 206 203 200 199 197 194 193 193 196 199 199 201 201 192 184 182 180 177 175 178 185 191 200 195 148 118 104 97 100 109 114 113 108 105 97 89 85 79 73 68 63 61 56 53 51 47
132 216 210 114 58 319 354 109 288 0 48 195 319 324 261 198 202 290 330 284 288 330 358 11 20 21 11 352 319 267 252 245 224 221 220 212 208 205 200 192 185 185 189 197 208 215 216 219 222 220 213 206 202 200 195 191 191 192 193 197 196 197 197 191 187 189 186 184 181 175 175 181 187 185 164 140 123 112 109 105 98 98 106 110 107 99 91 88 82 72 63 58 60 57 49 47 45
341 342 331 76 158 184 200 204 171 148 168 180 232 322 285 225 219 221 228 240 262 310 359 0 7 27 33 19 8 12 32 64 164 220 225 208 191 184 181 175 175 183 191 198 210 217 219 222 220 215 211 205 202 198 190 187 190 191 192 193 192 192 193 188 189 193 188 186 185 175 169 168 160 150 141 136 132 127 120 112 100 92 101 114 108 94 87 83 78 81 73 57 57 54 43 43 42
266 299 286 293 264 190 193 252 195 140 159 163 158 253 269 254 219 203 245 290 309 281 55 353 3 48 57 58 61 68 79 95 145 212 203 160 137 138 157 172 182 194 197 197 207 219 226 224 218 213 211 207 202 194 186 186 188 188 188 190 192 194 193 188 184 187 188 190 188 181 175 165 153 145 140 140 143 139 124 113 106 93 97 112 109 95 89 82 75 76 77 62 50 39 27 36 41
181 180 220 217 208 180 154 285 295 124 153 161 152 195 263 264 179 97 248 283 8 66 113 95 46 62 64 67 75 84 93 105 127 156 158 148 138 135 164 194 203 211 209 200 206 223 226 220 220 214 207 208 200 183 178 182 183 184 190 191 193 194 190 186 183 184 190 192 187 186 183 171 165 159 147 142 145 145 131 112 104 103 109 112 111 108 101 91 76 61 62 61 45 36 25 45 45